[[{"header":{"parameterUnit":"m.s-1","parameterCategory":2,"la1":30.2991,"la2":30.254,"lo1":-89.0895,"lo2":-89.0444,"dy":0.0017,"dx":0.0017,"nx":28,"ny":28,"refTime":"2025-04-17T21:00:00:Z","depth":"0","parameterNumber":2,"parameterNumberName":"U-component_of_CURRENTS"},"data":[0,0,0,0,0,0,0,0,0,0,0,0,0,0,0,0,0,0,0,0,0,0,0,0,0,0,0,0,0,0,0,0,0,0,0,0,0,0,0,0,0,0,0,0,0,0,0,0,0,0,0,0,0,0,0,0,0,0,-0.3769,-0.377,0,-0.3978,-0.3981,-0.3984,-0.3986,-0.3983,-0.3979,-0.3976,-0.4,-0.4004,-0.4008,0,0,0,0,0,0,0,0,0,0,0,0,0,-0.3433,-0.3439,-0.3769,-0.377,-0.3772,-0.3977,-0.3981,-0.3984,-0.3987,-0.3983,-0.3979,-0.3975,-0.3999,-0.4004,-0.4008,0,0,0,0,0,0,0,0,0,0,0,0,0,-0.3612,-0.3441,-0.3768,-0.3792,-0.3796,-0.3976,-0.3981,-0.3985,-0.3988,-0.3983,-0.3977,-0.3973,-0.3998,-0.4003,-0.4009,-0.4147,0,0,-0.4026,-0.4029,0,0,0,0,0,0,0,0,-0.3602,-0.3625,-0.3787,-0.3791,-0.3795,-0.3943,-0.3871,-0.4027,-0.3989,-0.3924,-0.3976,-0.397,-0.3963,-0.3971,-0.4036,-0.4148,-0.4149,-0.4027,-0.403,-0.4033,-0.4035,0,0,0,0,0,0,0,-0.3589,-0.3616,-0.386,-0.3789,-0.3794,-0.3812,-0.3833,-0.3902,-0.3972,-0.3929,-0.3928,-0.3939,-0.3964,-0.4031,-0.4036,-0.4149,-0.4027,-0.4032,-0.4035,-0.4038,-0.4291,-0.4294,0,0,0,0,0,0,-0.3551,-0.3606,-0.3853,-0.3865,-0.3674,-0.3822,-0.3845,-0.3908,-0.3976,-0.398,-0.3943,-0.3938,-0.4024,-0.4029,-0.4036,-0.4086,-0.4033,-0.4038,-0.4042,-0.4287,-0.4291,-0.4295,0,0,0,0,0,0,-0.3544,-0.3573,-0.3844,-0.3729,-0.3763,-0.3832,-0.3903,-0.3914,-0.395,-0.3987,-0.3988,-0.3961,-0.402,-0.4028,-0.4116,-0.409,-0.4041,-0.4046,-0.4284,-0.4289,-0.4293,-0.4259,0,0,0,0,0,0,-0.3534,-0.3571,-0.361,-0.3729,-0.3768,-0.3935,-0.3908,-0.3922,-0.3962,-0.3958,-0.4004,-0.4003,-0.4017,-0.4108,-0.4122,-0.4097,-0.4051,-0.4279,-0.4286,-0.4292,-0.4256,-0.4262,-0.4267,0,0,0,0,0,-0.3523,-0.359,-0.3613,-0.3641,-0.382,-0.3936,-0.3961,-0.3994,-0.3967,-0.4004,-0.4053,-0.4,-0.4154,-0.4118,-0.4133,-0.4108,-0.4276,-0.4284,-0.4291,-0.4253,-0.4261,-0.4267,0,0,0,0,0,0,-0.3455,-0.3601,-0.3626,-0.3732,-0.3816,-0.3932,-0.3969,-0.3995,-0.4074,-0.4056,-0.4077,-0.4085,-0.4148,-0.4167,-0.4126,-0.4208,-0.4194,-0.4204,-0.416,-0.4167,-0.4173,-0.4061,-0.4055,0,0,0,0,0,-0.3464,-0.3557,-0.3676,-0.3756,-0.3796,-0.3884,-0.3933,-0.3963,-0.4041,-0.4068,-0.4108,-0.4152,-0.4207,-0.4213,-0.4284,-0.4344,-0.4262,-0.4334,-0.434,-0.4344,-0.4271,-0.4132,-0.4113,-0.4319,-0.4319,-0.4319,0,0,-0.3446,-0.3546,-0.3589,-0.3747,-0.3813,-0.3872,-0.3902,-0.3978,-0.4,-0.4061,-0.4116,-0.4192,-0.4241,-0.4309,-0.4331,-0.4301,-0.4268,-0.4353,-0.4355,-0.4278,-0.4137,-0.4115,-0.4095,-0.4324,-0.4323,-0.4322,0,0,-0.3444,-0.3558,-0.3615,-0.3697,-0.3804,-0.3868,-0.3879,-0.4001,-0.4023,-0.4132,-0.4156,-0.4218,-0.4331,-0.4338,-0.4356,-0.4442,-0.4324,-0.4465,-0.4366,-0.4235,-0.4213,-0.4192,-0.4135,-0.4109,-0.4438,-0.4437,-0.4437,0,-0.3403,-0.3498,-0.3642,-0.371,-0.3731,-0.3849,-0.386,-0.3949,-0.4077,-0.4065,-0.4132,-0.4241,-0.4328,-0.4302,-0.436,-0.4438,-0.4355,-0.4325,-0.4227,-0.4204,-0.4183,-0.4129,-0.41,-0.4437,-0.4437,-0.4437,-0.4437,0,-0.3427,-0.3497,-0.3534,-0.365,-0.3714,-0.3754,-0.3861,-0.3919,-0.3973,-0.4024,-0.4054,-0.4195,-0.4215,-0.4285,-0.4366,-0.4262,-0.4256,-0.4262,-0.4174,-0.4157,-0.4108,-0.4078,-0.4436,-0.4436,-0.4436,-0.4436,0,0,-0.3308,-0.3501,-0.3499,-0.3526,-0.3662,-0.3716,-0.3754,-0.3788,-0.3774,-0.3901,-0.3846,-0.4008,-0.4042,-0.4067,-0.4148,-0.4073,-0.3964,-0.4099,-0.4092,-0.3981,-0.3681,-0.3656,-0.3622,-0.3907,-0.3901,-0.3895,-0.373,0,-0.3238,-0.3321,-0.3423,-0.345,-0.3484,-0.358,-0.3605,-0.3664,-0.3732,-0.3752,-0.3803,-0.385,-0.3963,-0.3996,-0.3926,-0.3987,-0.3869,-0.4008,-0.3766,-0.3759,-0.3683,-0.358,-0.3456,-0.329,-0.37,-0.3695,-0.3692,0,-0.3182,-0.3248,-0.3256,-0.3336,-0.3348,-0.338,-0.3386,-0.3438,-0.3485,-0.3533,-0.3522,-0.3604,-0.3589,-0.369,-0.3586,-0.3654,-0.363,-0.3645,-0.3637,-0.3572,-0.3673,-0.3367,-0.322,-0.3206,-0.3645,-0.3649,-0.3652,0,-0.3014,-0.3107,-0.3091,-0.3128,-0.3256,-0.3232,-0.3276,-0.3338,-0.3367,-0.3381,-0.3406,-0.3358,-0.3399,-0.33,-0.3419,-0.3457,-0.3284,-0.3341,-0.3254,-0.3257,-0.3078,-0.3074,-0.2812,-0.3127,-0.3128,-0.3128,-0.3129,0,-0.2901,-0.2893,-0.302,-0.3032,-0.3003,-0.3117,-0.3091,-0.3141,-0.3191,-0.3206,-0.3274,-0.3275,-0.3291,-0.3261,-0.3283,-0.3192,-0.315,-0.3166,-0.3161,-0.3084,-0.3083,-0.3008,-0.3069,-0.3122,-0.3123,-0.3125,-0.3126,0,-0.2756,-0.2832,-0.2849,-0.2933,-0.295,-0.2942,-0.303,-0.3029,-0.3091,-0.3106,-0.3109,-0.3179,-0.314,-0.3151,-0.3068,-0.3049,-0.291,-0.2925,-0.2888,-0.2878,-0.2773,-0.2841,-0.2559,-0.2488,-0.2746,-0.2744,-0.2742,0,-0.2696,-0.2691,-0.2774,-0.2781,-0.2819,-0.2842,-0.2859,-0.2958,-0.2983,-0.3062,-0.3052,-0.3043,-0.3028,-0.2916,-0.2851,-0.2747,-0.279,-0.2584,-0.2614,-0.2667,-0.2739,-0.2809,-0.2776,-0.2412,-0.2407,-0.2404,-0.2401,0,-0.2571,-0.26,-0.2622,-0.2648,-0.2666,-0.2698,-0.274,-0.2753,-0.2864,-0.2885,-0.29,-0.2885,-0.2813,-0.2674,-0.2575,-0.2511,-0.2524,-0.2502,-0.2501,-0.2367,-0.2467,-0.2434,-0.2712,-0.2367,-0.2371,-0.2373,-0.2375,-0.2376,-0.2458,-0.2446,-0.2475,-0.2481,-0.2509,-0.2515,-0.2492,-0.2567,-0.2581,-0.2597,-0.2686,-0.2633,-0.2562,-0.2396,-0.2324,-0.2165,-0.2263,-0.2109,-0.2168,-0.2221,-0.2167,-0.2413,-0.2111,-0.2113,-0.2115,-0.2116,-0.2117,0,-0.2297,-0.23,-0.2305,-0.2308,-0.2273,-0.2347,-0.2372,-0.2329,-0.2301,-0.2378,-0.2368,-0.2315,-0.2166,-0.2118,-0.197,-0.187,-0.183,-0.1839,-0.1874,-0.184,-0.1961,-0.1963,-0.168,-0.168,-0.168,-0.168,-0.168,-0.168,-0.2211,-0.215,-0.2157,-0.2049,-0.2052,-0.1958,-0.1936,-0.1913,-0.1932,-0.1872,-0.1897,-0.1942,-0.194,-0.2037,-0.187,-0.1761,-0.1734,-0.1677,-0.1732,-0.183,-0.1861,-0.189,-0.1898,-0.1606,-0.1606,-0.1518,-0.1518,-0.1518]},{"header":{"parameterUnit":"m.s-1","parameterCategory":2,"la1":30.2991,"la2":30.254,"lo1":-89.0895,"lo2":-89.0444,"dy":0.0017,"dx":0.0017,"nx":28,"ny":28,"refTime":"2025-04-17T21:00:00:Z","depth":"0","parameterNumber":3,"parameterNumberName":"V-component_of_CURRENTS"},"data":[0,0,0,0,0,0,0,0,0,0,0,0,0,0,0,0,0,0,0,0,0,0,0,0,0,0,0,0,0,0,0,0,0,0,0,0,0,0,0,0,0,0,0,0,0,0,0,0,0,0,0,0,0,0,0,0,0,0,0.0089,0.0091,0,0.0335,0.0338,0.0341,0.0474,0.0473,0.0473,0.0473,0.0741,0.0748,0.0755,0,0,0,0,0,0,0,0,0,0,0,0,0,-0.0151,-0.0147,0.0089,0.0091,0.0094,0.0334,0.0338,0.0342,0.0474,0.0473,0.0473,0.0473,0.0739,0.0747,0.0756,0,0,0,0,0,0,0,0,0,0,0,0,0,0.0015,-0.0146,0.0088,0.0184,0.0195,0.0333,0.0338,0.0343,0.0474,0.0473,0.0473,0.0473,0.0736,0.0746,0.0757,0.0833,0,0,0.0791,0.0796,0,0,0,0,0,0,0,0,0.0005,0.0024,0.0167,0.0178,0.019,0.0368,0.0352,0.0506,0.0474,0.0374,0.0473,0.0472,0.0615,0.0636,0.0691,0.0846,0.0857,0.0792,0.0799,0.0804,0.0807,0,0,0,0,0,0,0,-0.0006,0.0015,0.0192,0.017,0.0184,0.0254,0.0277,0.0383,0.0498,0.0383,0.0391,0.041,0.0622,0.068,0.0698,0.0861,0.0792,0.0802,0.0808,0.0813,0.1016,0.1015,0,0,0,0,0,0,-0.0054,0.0004,0.0184,0.0199,0.0088,0.0258,0.0284,0.0316,0.0497,0.0523,0.041,0.0415,0.0661,0.0685,0.0708,0.0756,0.0803,0.0814,0.082,0.1017,0.1015,0.1014,0,0,0,0,0,0,-0.0059,-0.0039,0.0174,0.0101,0.0132,0.0261,0.0297,0.0321,0.0365,0.0516,0.0543,0.0426,0.0662,0.0692,0.0791,0.0769,0.0819,0.0829,0.1018,0.1016,0.1015,0.0885,0,0,0,0,0,0,-0.0067,-0.0042,-0.0036,0.0098,0.0135,0.0223,0.0298,0.0326,0.0375,0.0383,0.054,0.0565,0.0664,0.0774,0.0802,0.0785,0.0837,0.102,0.1018,0.1015,0.0891,0.0879,0.0868,0,0,0,0,0,-0.0076,-0.0075,-0.0036,-0.0015,0.0141,0.0221,0.0246,0.0341,0.0374,0.0382,0.0497,0.056,0.0778,0.0784,0.0817,0.0801,0.1021,0.1018,0.1016,0.0895,0.0881,0.0869,0,0,0,0,0,0,-0.0172,-0.0058,-0.0013,0.0025,0.0101,0.0241,0.0257,0.0323,0.0424,0.0431,0.0574,0.0608,0.0678,0.0756,0.0758,0.0847,0.0898,0.0902,0.0795,0.0783,0.0772,0.0736,0.0847,0,0,0,0,0,-0.0193,-0.0163,-0.0048,-0.0021,0.0007,0.0128,0.0173,0.0234,0.034,0.0383,0.0494,0.0601,0.0697,0.075,0.0844,0.0913,0.0946,0.0912,0.0901,0.0891,0.0881,0.0878,0.0865,0.1005,0.1005,0.1005,0,0,-0.0223,-0.0157,-0.0139,-0.0041,0.0028,0.006,0.0155,0.0202,0.0238,0.0397,0.0472,0.0573,0.0705,0.0777,0.0812,0.0839,0.0874,0.0888,0.0879,0.0874,0.0874,0.086,0.0848,0.1003,0.1003,0.1004,0,0,-0.0285,-0.0215,-0.022,-0.0165,-0.0083,-0.0005,-0.0007,0.0117,0.0175,0.0269,0.0376,0.0466,0.0619,0.0708,0.0774,0.0758,0.0813,0.0766,0.0693,0.0689,0.0677,0.0667,0.0709,0.0703,0.0762,0.0761,0.0761,0,-0.0333,-0.0305,-0.0212,-0.0204,-0.0173,-0.0052,-0.0056,0.0029,0.017,0.0207,0.0263,0.0464,0.0589,0.0668,0.0675,0.0734,0.0742,0.0736,0.0672,0.0663,0.0655,0.07,0.0695,0.0755,0.0756,0.0756,0.0757,0,-0.0391,-0.0372,-0.0376,-0.0321,-0.0279,-0.0263,-0.0152,-0.0105,-0.0019,0.0072,0.0163,0.0335,0.0447,0.0495,0.0605,0.0603,0.0632,0.0654,0.07,0.0632,0.0685,0.0683,0.0745,0.0748,0.075,0.0751,0,0,-0.0484,-0.0431,-0.0431,-0.0429,-0.0341,-0.0311,-0.0274,-0.0199,-0.0178,-0.0045,-0.0013,0.0179,0.0256,0.0334,0.0455,0.0482,0.0475,0.0536,0.0539,0.0568,0.0475,0.0564,0.0572,0.0458,0.0457,0.0456,0.0541,0,-0.056,-0.0584,-0.0529,-0.0547,-0.0548,-0.0449,-0.042,-0.0339,-0.0243,-0.0181,-0.0029,0.0063,0.0197,0.0254,0.0294,0.0436,0.0458,0.0452,0.0545,0.055,0.0628,0.0568,0.0626,0.071,0.0539,0.0539,0.0539,0,-0.0628,-0.0633,-0.0673,-0.0651,-0.0645,-0.0636,-0.0583,-0.0538,-0.0429,-0.0356,-0.0267,-0.014,-0.0024,0.0075,0.0234,0.0209,0.0324,0.0424,0.0429,0.0554,0.0634,0.0749,0.0713,0.0909,0.0536,0.0536,0.0536,0,-0.0721,-0.0728,-0.0766,-0.0755,-0.0713,-0.0718,-0.069,-0.0599,-0.0564,-0.0471,-0.0435,-0.0307,-0.0208,-0.0097,0.0171,0.0171,0.0328,0.0353,0.0537,0.0547,0.0641,0.0661,0.0797,0.0413,0.0413,0.0413,0.0412,0,-0.0801,-0.0828,-0.0815,-0.0829,-0.0876,-0.0811,-0.0831,-0.0779,-0.0712,-0.0683,-0.0533,-0.0466,-0.0256,-0.0105,0.0085,0.0326,0.026,0.0515,0.0559,0.0602,0.0616,0.0829,0.0908,0.0416,0.0415,0.0414,0.0414,0,-0.0878,-0.0869,-0.0913,-0.0911,-0.0915,-0.0942,-0.0923,-0.0927,-0.0849,-0.0814,-0.0789,-0.0597,-0.039,-0.0152,0.0081,0.025,0.0584,0.0552,0.0622,0.0672,0.1002,0.1071,0.1247,0.1365,0.0729,0.0732,0.0734,0,-0.0916,-0.0946,-0.0984,-0.1019,-0.1021,-0.1048,-0.1062,-0.1002,-0.0995,-0.0868,-0.0857,-0.0649,-0.0459,-0.0068,0.0244,0.0556,0.0713,0.0787,0.0803,0.1023,0.1131,0.1178,0.1267,0.0888,0.0892,0.0894,0.0896,0,-0.0988,-0.1,-0.1037,-0.1118,-0.1154,-0.1191,-0.1202,-0.1215,-0.1131,-0.1051,-0.0905,-0.0744,-0.0343,0.0057,0.0469,0.0664,0.0937,0.085,0.1039,0.1232,0.1327,0.1462,0.0864,0.092,0.0917,0.0916,0.0914,0.0913,-0.1034,-0.1086,-0.1139,-0.1209,-0.1261,-0.1309,-0.1318,-0.1286,-0.1233,-0.1039,-0.0939,-0.0588,-0.008,0.0524,0.0739,0.1212,0.1157,0.136,0.1417,0.1439,0.157,0.105,0.1176,0.1175,0.1175,0.1174,0.1173,0,-0.1083,-0.1139,-0.1224,-0.1304,-0.1371,-0.1369,-0.1385,-0.1313,-0.1206,-0.0952,-0.0739,-0.0124,0.0408,0.0895,0.15,0.1763,0.1815,0.1892,0.1964,0.2022,0.1533,0.156,0.1822,0.1822,0.1822,0.1821,0.1821,0.1821,-0.1109,-0.1196,-0.1243,-0.1365,-0.1419,-0.144,-0.143,-0.1236,-0.102,-0.052,-0.0105,0.0173,0.078,0.1648,0.2216,0.2274,0.2495,0.248,0.2591,0.2255,0.221,0.2166,0.2212,0.2606,0.2607,0.3075,0.308,0.3083]}],[{"header":{"parameterUnit":"m.s-1","parameterCategory":2,"la1":30.2991,"la2":30.254,"lo1":-89.0895,"lo2":-89.0444,"dy":0.0017,"dx":0.0017,"nx":28,"ny":28,"refTime":"2025-04-17T21:00:00:Z","depth":"2","parameterNumber":2,"parameterNumberName":"U-component_of_CURRENTS"},"data":[0,0,0,0,0,0,0,0,0,0,0,0,0,0,0,0,0,0,0,0,0,0,0,0,0,0,0,0,0,0,0,0,0,0,0,0,0,0,0,0,0,0,0,0,0,0,0,0,0,0,0,0,0,0,0,0,0,0,-0.2728,-0.2729,0,-0.2801,-0.2802,-0.2802,-0.2784,-0.2782,-0.2781,-0.278,-0.286,-0.2863,-0.2866,0,0,0,0,0,0,0,0,0,0,0,0,0,-0.2655,-0.2656,-0.2728,-0.2729,-0.2731,-0.2801,-0.2802,-0.2802,-0.2784,-0.2782,-0.2781,-0.278,-0.2859,-0.2863,-0.2866,0,0,0,0,0,0,0,0,0,0,0,0,0,-0.27,-0.2656,-0.2728,-0.2732,-0.2733,-0.2801,-0.2802,-0.2803,-0.2784,-0.2782,-0.2781,-0.2779,-0.2857,-0.2862,-0.2867,-0.2932,0,0,-0.2882,-0.2884,0,0,0,0,0,0,0,0,-0.2698,-0.2702,-0.273,-0.2732,-0.2733,-0.2784,-0.2805,-0.2847,-0.2785,-0.2762,-0.278,-0.2778,-0.2838,-0.2845,-0.2858,-0.2936,-0.2939,-0.2882,-0.2885,-0.2887,-0.2888,0,0,0,0,0,0,0,-0.2694,-0.27,-0.2754,-0.2732,-0.2734,-0.2758,-0.2762,-0.2813,-0.2807,-0.2764,-0.2763,-0.2776,-0.2838,-0.2853,-0.286,-0.294,-0.2882,-0.2886,-0.2889,-0.2891,-0.3103,-0.3106,0,0,0,0,0,0,-0.2689,-0.2697,-0.2752,-0.2757,-0.2714,-0.2761,-0.2765,-0.2767,-0.2806,-0.2811,-0.2778,-0.2775,-0.2846,-0.2854,-0.2863,-0.295,-0.2887,-0.2892,-0.2894,-0.31,-0.3104,-0.3107,0,0,0,0,0,0,-0.2687,-0.2693,-0.2749,-0.2731,-0.274,-0.2764,-0.2767,-0.277,-0.2789,-0.2817,-0.2821,-0.2795,-0.2845,-0.2856,-0.2923,-0.2952,-0.2894,-0.2898,-0.3097,-0.3101,-0.3105,-0.312,0,0,0,0,0,0,-0.2684,-0.2691,-0.2691,-0.273,-0.2741,-0.2809,-0.2769,-0.2772,-0.2801,-0.2799,-0.2835,-0.2839,-0.2844,-0.2916,-0.2928,-0.2958,-0.2902,-0.3094,-0.3099,-0.3104,-0.3116,-0.3124,-0.3131,0,0,0,0,0,-0.2681,-0.2696,-0.269,-0.2697,-0.2739,-0.2811,-0.282,-0.2828,-0.2804,-0.2834,-0.2851,-0.2838,-0.2957,-0.2923,-0.2936,-0.2968,-0.3091,-0.3097,-0.3103,-0.3113,-0.3122,-0.3131,0,0,0,0,0,0,-0.2668,-0.2697,-0.2691,-0.2713,-0.2765,-0.2809,-0.2832,-0.2841,-0.2877,-0.2869,-0.2878,-0.2887,-0.2962,-0.2974,-0.2936,-0.3048,-0.3022,-0.3031,-0.3024,-0.3034,-0.3041,-0.2959,-0.2906,0,0,0,0,0,-0.2664,-0.2671,-0.2723,-0.2739,-0.2766,-0.28,-0.2826,-0.2843,-0.2881,-0.2894,-0.293,-0.2962,-0.3001,-0.3021,-0.3073,-0.3134,-0.309,-0.3166,-0.3173,-0.3179,-0.3125,-0.3093,-0.309,-0.3127,-0.3127,-0.3127,0,0,-0.2662,-0.2678,-0.2682,-0.2736,-0.2766,-0.2808,-0.2811,-0.2866,-0.2887,-0.2901,-0.2954,-0.3005,-0.303,-0.3097,-0.3129,-0.3104,-0.3158,-0.3187,-0.3191,-0.3132,-0.3099,-0.3094,-0.309,-0.3131,-0.313,-0.313,0,0,-0.2671,-0.268,-0.2696,-0.2738,-0.2796,-0.2826,-0.2847,-0.292,-0.2936,-0.3007,-0.3015,-0.3048,-0.3154,-0.314,-0.3147,-0.3224,-0.321,-0.3298,-0.3251,-0.3223,-0.3217,-0.3211,-0.3182,-0.3173,-0.3286,-0.3286,-0.3286,0,-0.2666,-0.2683,-0.2719,-0.2751,-0.2777,-0.2832,-0.2868,-0.2902,-0.2989,-0.3005,-0.3027,-0.3121,-0.3138,-0.3151,-0.3177,-0.3227,-0.3234,-0.3209,-0.3224,-0.3218,-0.3211,-0.3182,-0.3172,-0.3287,-0.3287,-0.3287,-0.3287,0,-0.2689,-0.2704,-0.2726,-0.2762,-0.2807,-0.2856,-0.291,-0.2963,-0.2997,-0.3028,-0.309,-0.312,-0.315,-0.3193,-0.32,-0.3195,-0.3226,-0.3245,-0.3181,-0.3207,-0.3177,-0.3166,-0.3289,-0.3289,-0.3288,-0.3288,0,0,-0.2656,-0.2726,-0.2727,-0.2741,-0.2815,-0.2854,-0.2898,-0.2954,-0.2965,-0.3046,-0.3055,-0.31,-0.3121,-0.3127,-0.3162,-0.313,-0.3095,-0.3177,-0.3175,-0.311,-0.3062,-0.299,-0.2971,-0.3152,-0.315,-0.3148,-0.3068,0,-0.2657,-0.2702,-0.2741,-0.2779,-0.2808,-0.2864,-0.2898,-0.2949,-0.2999,-0.3038,-0.304,-0.308,-0.3097,-0.3123,-0.3092,-0.3116,-0.3066,-0.3115,-0.3076,-0.3073,-0.2974,-0.2954,-0.2758,-0.2662,-0.3057,-0.3055,-0.3054,0,-0.2644,-0.2677,-0.2717,-0.2771,-0.2791,-0.2821,-0.2871,-0.2912,-0.2963,-0.3003,-0.3021,-0.3059,-0.3028,-0.3043,-0.2997,-0.3057,-0.3033,-0.3029,-0.3027,-0.2924,-0.2978,-0.2699,-0.2627,-0.3035,-0.3036,-0.3038,-0.3039,0,-0.2573,-0.2645,-0.2669,-0.2689,-0.2773,-0.2791,-0.2834,-0.2894,-0.2926,-0.2968,-0.2996,-0.2997,-0.2992,-0.2968,-0.2957,-0.2995,-0.2908,-0.2952,-0.2846,-0.2842,-0.2633,-0.2614,-0.2859,-0.2859,-0.286,-0.286,-0.286,0,-0.2532,-0.2544,-0.2636,-0.2644,-0.2672,-0.2743,-0.2772,-0.2819,-0.288,-0.2904,-0.296,-0.2966,-0.298,-0.2958,-0.2939,-0.2849,-0.2879,-0.2791,-0.2796,-0.2643,-0.2626,-0.2915,-0.2923,-0.2857,-0.2858,-0.2858,-0.2859,0,-0.2432,-0.2496,-0.2524,-0.2611,-0.2634,-0.2647,-0.2733,-0.2754,-0.2826,-0.2854,-0.2866,-0.293,-0.2898,-0.2893,-0.2846,-0.2803,-0.2739,-0.2693,-0.2512,-0.2495,-0.2698,-0.2708,-0.255,-0.2547,-0.2544,-0.2541,-0.2539,0,-0.2382,-0.2387,-0.2475,-0.2489,-0.2524,-0.2567,-0.2596,-0.27,-0.2731,-0.2822,-0.2821,-0.2829,-0.2796,-0.2707,-0.2628,-0.2532,-0.2636,-0.2309,-0.2299,-0.2634,-0.2656,-0.2672,-0.2686,-0.205,-0.2044,-0.2039,-0.2035,0,-0.2277,-0.2311,-0.2338,-0.2376,-0.2407,-0.2448,-0.2502,-0.2523,-0.2637,-0.2664,-0.2681,-0.2661,-0.2593,-0.241,-0.231,-0.224,-0.2313,-0.2206,-0.2568,-0.2172,-0.2158,-0.2183,-0.2213,-0.1992,-0.1996,-0.1999,-0.2002,-0.2003,-0.2182,-0.2177,-0.2216,-0.2234,-0.2273,-0.2291,-0.2268,-0.2347,-0.2365,-0.2366,-0.246,-0.2356,-0.2332,-0.2063,-0.195,-0.1861,-0.2022,-0.1939,-0.1955,-0.1976,-0.1945,-0.1928,-0.1712,-0.1714,-0.1717,-0.1719,-0.1721,0,-0.2047,-0.2056,-0.207,-0.2088,-0.2067,-0.2141,-0.2167,-0.211,-0.2072,-0.2108,-0.2082,-0.1857,-0.1729,-0.1707,-0.1496,-0.1456,-0.1447,-0.14,-0.1396,-0.144,-0.1479,-0.1424,-0.1051,-0.1049,-0.1048,-0.1046,0,0,-0.1974,-0.193,-0.1939,-0.1859,-0.187,-0.1778,-0.175,-0.1698,-0.1671,-0.1585,-0.1532,-0.1635,-0.1652,-0.1359,-0.1285,-0.1131,-0.127,-0.1068,-0.1604,-0.1641,-0.1677,-0.1786,-0.175,0,0,0,0,0]},{"header":{"parameterUnit":"m.s-1","parameterCategory":2,"la1":30.2991,"la2":30.254,"lo1":-89.0895,"lo2":-89.0444,"dy":0.0017,"dx":0.0017,"nx":28,"ny":28,"refTime":"2025-04-17T21:00:00:Z","depth":"2","parameterNumber":3,"parameterNumberName":"V-component_of_CURRENTS"},"data":[0,0,0,0,0,0,0,0,0,0,0,0,0,0,0,0,0,0,0,0,0,0,0,0,0,0,0,0,0,0,0,0,0,0,0,0,0,0,0,0,0,0,0,0,0,0,0,0,0,0,0,0,0,0,0,0,0,0,-0.0334,-0.0333,0,-0.024,-0.0239,-0.0238,-0.0148,-0.0147,-0.0146,-0.0145,0.0011,0.0014,0.0017,0,0,0,0,0,0,0,0,0,0,0,0,0,-0.0393,-0.0392,-0.0334,-0.0332,-0.0331,-0.024,-0.0239,-0.0237,-0.0148,-0.0147,-0.0146,-0.0145,0.001,0.0014,0.0017,0,0,0,0,0,0,0,0,0,0,0,0,0,-0.034,-0.0392,-0.0334,-0.0276,-0.027,-0.024,-0.0239,-0.0237,-0.0149,-0.0147,-0.0145,-0.0144,0.0009,0.0013,0.0018,0.0014,0,0,0.0032,0.0034,0,0,0,0,0,0,0,0,-0.0343,-0.0338,-0.0286,-0.028,-0.0273,-0.0204,-0.0202,-0.015,-0.0149,-0.0194,-0.0145,-0.0143,-0.0057,-0.0047,-0.0033,0.0021,0.0028,0.0033,0.0035,0.0037,0.0039,0,0,0,0,0,0,0,-0.0347,-0.0341,-0.0296,-0.0285,-0.0277,-0.024,-0.0231,-0.0192,-0.0135,-0.019,-0.0184,-0.0175,-0.0053,-0.0038,-0.0029,0.003,0.0032,0.0037,0.004,0.0041,0.0149,0.0149,0,0,0,0,0,0,-0.0363,-0.0345,-0.0299,-0.0293,-0.0305,-0.0241,-0.0231,-0.0228,-0.0136,-0.0121,-0.0176,-0.0171,-0.0047,-0.0034,-0.0023,0.0023,0.0037,0.0042,0.0045,0.0148,0.0149,0.0149,0,0,0,0,0,0,-0.0365,-0.036,-0.0303,-0.0317,-0.0307,-0.0242,-0.0239,-0.0227,-0.0204,-0.0126,-0.0109,-0.0165,-0.0045,-0.0029,0.0003,0.0029,0.0044,0.0048,0.0148,0.0148,0.0149,0.0087,0,0,0,0,0,0,-0.0367,-0.0362,-0.037,-0.0318,-0.0307,-0.0288,-0.024,-0.0226,-0.0201,-0.0193,-0.0111,-0.0095,-0.0042,-0.0004,0.0008,0.0035,0.0052,0.0148,0.0148,0.0149,0.0089,0.0084,0.0081,0,0,0,0,0,-0.037,-0.0387,-0.0371,-0.0365,-0.0319,-0.0289,-0.028,-0.0228,-0.0203,-0.02,-0.0152,-0.0097,0.0007,-0.0002,0.0013,0.0043,0.0148,0.0148,0.0149,0.009,0.0085,0.0081,0,0,0,0,0,0,-0.0414,-0.0378,-0.0359,-0.0364,-0.0331,-0.0274,-0.027,-0.0236,-0.0197,-0.019,-0.0113,-0.0095,-0.0048,-0.0008,-0.0018,0.0073,0.0093,0.0096,0.0044,0.004,0.0036,0.0007,0.0056,0,0,0,0,0,-0.0432,-0.0436,-0.0391,-0.0395,-0.0383,-0.033,-0.0313,-0.028,-0.0237,-0.0217,-0.0156,-0.0094,-0.0039,-0.0007,0.0044,0.0077,0.0118,0.0111,0.0107,0.0104,0.009,0.0157,0.0158,0.0149,0.0149,0.0149,0,0,-0.045,-0.0432,-0.0433,-0.0405,-0.0377,-0.0369,-0.0315,-0.0298,-0.0284,-0.0208,-0.0172,-0.011,-0.0036,0.0011,0.0038,0.005,0.0129,0.0104,0.01,0.0088,0.0157,0.0158,0.0159,0.0149,0.0149,0.0149,0,0,-0.0491,-0.0474,-0.049,-0.0472,-0.044,-0.0404,-0.0403,-0.0347,-0.0315,-0.029,-0.0216,-0.0161,-0.0081,-0.0018,0.0021,0.0019,0.0103,0.0062,0.0025,0.0091,0.0092,0.0093,0.0147,0.0154,0.0064,0.0064,0.0064,0,-0.0515,-0.0525,-0.049,-0.0499,-0.0486,-0.0425,-0.0432,-0.0399,-0.0337,-0.0307,-0.0289,-0.0156,-0.01,-0.0024,-0.0019,0.0011,0.0065,0.0036,0.0085,0.0087,0.009,0.0145,0.0153,0.0061,0.0061,0.0062,0.0062,0,-0.0564,-0.057,-0.0579,-0.0568,-0.0551,-0.0549,-0.0499,-0.0471,-0.0427,-0.0377,-0.0301,-0.0229,-0.0144,-0.0104,-0.0066,0.0003,0.004,0.0069,0.0093,0.0087,0.0145,0.0155,0.0057,0.0058,0.0059,0.006,0,0,-0.062,-0.0614,-0.0617,-0.0621,-0.0587,-0.0578,-0.0557,-0.0508,-0.0483,-0.0415,-0.037,-0.0278,-0.0216,-0.017,-0.0089,-0.0035,0.0024,0.0023,0.0028,0.0068,0.0176,0.0215,0.0229,0.0079,0.008,0.0081,0.021,0,-0.0664,-0.0699,-0.0676,-0.0697,-0.0706,-0.0648,-0.0632,-0.058,-0.052,-0.0463,-0.0369,-0.0302,-0.0243,-0.0197,-0.0132,-0.0012,0.0048,-0.0014,0.0182,0.0187,0.0216,0.0241,0.0215,0.0329,0.022,0.0221,0.0222,0,-0.0718,-0.0732,-0.0765,-0.0755,-0.0752,-0.0752,-0.0701,-0.0679,-0.0583,-0.0535,-0.0446,-0.036,-0.0262,-0.0222,-0.0036,-0.0068,0.0041,0.0126,0.0134,0.0194,0.0243,0.0319,0.0352,0.0239,0.0238,0.0237,0.0236,0,-0.0775,-0.0791,-0.0817,-0.0817,-0.0798,-0.0794,-0.0773,-0.0697,-0.0674,-0.0574,-0.0539,-0.0401,-0.0335,-0.0186,-0.0011,-0.0012,0.0191,0.0212,0.0349,0.0353,0.0379,0.0383,0.0336,0.0336,0.0336,0.0336,0.0335,0,-0.0832,-0.0853,-0.0849,-0.0868,-0.0894,-0.0854,-0.0854,-0.0809,-0.0741,-0.0708,-0.058,-0.0516,-0.032,-0.0173,-0.0019,0.0197,0.0191,0.0344,0.0393,0.0357,0.0357,0.0313,0.0309,0.0341,0.0339,0.0338,0.0338,0,-0.0892,-0.0888,-0.0925,-0.0924,-0.0926,-0.0946,-0.093,-0.0922,-0.0846,-0.0799,-0.0772,-0.0597,-0.0399,-0.0195,0.0051,0.0185,0.0382,0.0462,0.04,0.0439,0.0501,0.0491,0.0621,0.0623,0.0626,0.0627,0.0629,0,-0.0925,-0.0952,-0.0983,-0.1013,-0.1018,-0.1036,-0.1046,-0.0987,-0.097,-0.0839,-0.0819,-0.0621,-0.0455,-0.0086,0.0175,0.0457,0.0454,0.0593,0.0578,0.0497,0.0532,0.0519,0.0508,0.059,0.0591,0.0592,0.0593,0,-0.0988,-0.0998,-0.103,-0.1098,-0.1128,-0.1154,-0.1157,-0.1161,-0.1074,-0.0994,-0.085,-0.0705,-0.0349,-0.0033,0.0321,0.0481,0.0541,0.062,0.0575,0.0516,0.0477,0.0508,0.0496,0.0601,0.06,0.0599,0.0599,0.0599,-0.1029,-0.1073,-0.1118,-0.1178,-0.1219,-0.1254,-0.1265,-0.123,-0.1175,-0.1025,-0.0884,-0.0622,-0.0334,0.0183,0.0431,0.0654,0.0647,0.0709,0.0703,0.0697,0.0664,0.0631,0.0776,0.0776,0.0777,0.0777,0.0777,0,-0.1075,-0.1122,-0.1193,-0.126,-0.1316,-0.1313,-0.132,-0.1292,-0.1207,-0.1019,-0.0828,-0.0483,-0.0108,0.0184,0.0549,0.0766,0.0739,0.0795,0.0718,0.071,0.0702,0.0666,0.0781,0.0782,0.0782,0.0783,0,0,-0.11,-0.1175,-0.1213,-0.1318,-0.1366,-0.1398,-0.1393,-0.1321,-0.1185,-0.0975,-0.0754,-0.046,-0.01,0.0161,0.0429,0.0616,0.0603,0.0631,0.0606,0.0476,0.0466,0.0637,0.057,0,0,0,0,0]}],[{"header":{"parameterUnit":"m.s-1","parameterCategory":2,"la1":30.2991,"la2":30.254,"lo1":-89.0895,"lo2":-89.0444,"dy":0.0017,"dx":0.0017,"nx":28,"ny":28,"refTime":"2025-04-17T21:00:00:Z","depth":"4","parameterNumber":2,"parameterNumberName":"U-component_of_CURRENTS"},"data":[0,0,0,0,0,0,0,0,0,0,0,0,0,0,0,0,0,0,0,0,0,0,0,0,0,0,0,0,0,0,0,0,0,0,0,0,0,0,0,0,0,0,0,0,0,0,0,0,0,0,0,0,0,0,0,0,0,0,-0.18,-0.1801,0,-0.186,-0.186,-0.1861,-0.1872,-0.1871,-0.1871,-0.1871,-0.1934,-0.1936,-0.1938,0,0,0,0,0,0,0,0,0,0,0,0,0,-0.1742,-0.1743,-0.18,-0.1801,-0.1802,-0.186,-0.186,-0.1861,-0.1872,-0.1871,-0.1871,-0.1871,-0.1934,-0.1936,-0.1938,0,0,0,0,0,0,0,0,0,0,0,0,0,-0.1778,-0.1743,-0.18,-0.1817,-0.182,-0.186,-0.186,-0.1861,-0.1872,-0.1871,-0.1871,-0.1871,-0.1933,-0.1936,-0.1938,-0.1961,0,0,-0.1947,-0.1948,0,0,0,0,0,0,0,0,-0.1776,-0.1779,-0.1814,-0.1816,-0.1819,-0.1861,-0.1863,-0.1896,-0.1872,-0.1848,-0.1871,-0.1871,-0.1913,-0.1917,-0.1924,-0.1964,-0.1966,-0.1947,-0.1949,-0.195,-0.1951,0,0,0,0,0,0,0,-0.1773,-0.1777,-0.182,-0.1815,-0.1818,-0.1838,-0.1842,-0.1869,-0.1878,-0.185,-0.1852,-0.1864,-0.1914,-0.1921,-0.1926,-0.1967,-0.1947,-0.195,-0.1951,-0.1952,-0.2103,-0.2105,0,0,0,0,0,0,-0.1771,-0.1775,-0.1819,-0.1823,-0.18,-0.184,-0.1844,-0.1845,-0.1878,-0.1884,-0.1865,-0.1865,-0.1917,-0.1922,-0.1928,-0.1994,-0.195,-0.1953,-0.1954,-0.2101,-0.2104,-0.2106,0,0,0,0,0,0,-0.1769,-0.1774,-0.1816,-0.1804,-0.1811,-0.1841,-0.1842,-0.1846,-0.188,-0.189,-0.1895,-0.1897,-0.1917,-0.1924,-0.198,-0.1995,-0.1954,-0.1956,-0.2098,-0.2102,-0.2105,-0.2103,0,0,0,0,0,0,-0.1767,-0.1772,-0.1785,-0.1803,-0.1812,-0.1858,-0.1843,-0.1848,-0.1888,-0.189,-0.1919,-0.1923,-0.1917,-0.1976,-0.1983,-0.1999,-0.1959,-0.2095,-0.21,-0.2104,-0.21,-0.2106,-0.2111,0,0,0,0,0,-0.1764,-0.1781,-0.1784,-0.1791,-0.1822,-0.186,-0.1867,-0.1885,-0.1891,-0.1913,-0.1937,-0.1924,-0.2008,-0.198,-0.1988,-0.2004,-0.2093,-0.2098,-0.2103,-0.2098,-0.2105,-0.2111,0,0,0,0,0,0,-0.1765,-0.1784,-0.1788,-0.181,-0.1842,-0.1863,-0.1894,-0.1905,-0.1942,-0.1954,-0.1954,-0.196,-0.2009,-0.2025,-0.1994,-0.2067,-0.2049,-0.2056,-0.2043,-0.205,-0.2055,-0.2063,-0.1961,0,0,0,0,0,-0.177,-0.1784,-0.1811,-0.1832,-0.1853,-0.188,-0.1903,-0.1919,-0.1949,-0.1965,-0.1987,-0.2016,-0.2034,-0.2057,-0.2079,-0.2128,-0.2132,-0.2148,-0.2153,-0.2158,-0.2174,-0.2206,-0.2214,-0.2123,-0.2123,-0.2123,0,0,-0.1779,-0.1791,-0.1801,-0.1834,-0.1861,-0.1896,-0.1894,-0.1943,-0.1971,-0.1968,-0.2025,-0.2037,-0.2053,-0.2092,-0.2117,-0.211,-0.2182,-0.2164,-0.2167,-0.2182,-0.2212,-0.222,-0.2228,-0.2127,-0.2126,-0.2126,0,0,-0.1798,-0.1816,-0.1836,-0.1864,-0.1913,-0.1932,-0.1954,-0.1998,-0.202,-0.2075,-0.207,-0.2098,-0.215,-0.2148,-0.2155,-0.2216,-0.2205,-0.2233,-0.2269,-0.2298,-0.2305,-0.2311,-0.2298,-0.2303,-0.224,-0.224,-0.224,0,-0.1813,-0.1832,-0.1852,-0.1881,-0.1915,-0.1952,-0.1993,-0.2019,-0.2075,-0.2103,-0.2103,-0.2172,-0.2169,-0.2204,-0.2214,-0.2222,-0.2235,-0.2229,-0.2302,-0.2308,-0.2314,-0.2299,-0.2305,-0.224,-0.224,-0.224,-0.224,0,-0.1835,-0.1867,-0.189,-0.1931,-0.197,-0.2018,-0.2058,-0.2106,-0.2142,-0.2163,-0.2226,-0.2231,-0.227,-0.2268,-0.2253,-0.2301,-0.2291,-0.2294,-0.2272,-0.2323,-0.2304,-0.231,-0.2241,-0.2241,-0.2241,-0.2241,0,0,-0.1826,-0.1894,-0.1905,-0.1936,-0.2006,-0.2038,-0.2102,-0.2165,-0.2209,-0.2257,-0.2311,-0.2325,-0.2337,-0.2348,-0.2338,-0.2358,-0.2376,-0.2351,-0.2353,-0.2315,-0.2425,-0.2237,-0.2225,-0.2399,-0.2401,-0.2403,-0.2381,0,-0.1846,-0.1904,-0.1939,-0.2009,-0.2045,-0.2106,-0.2159,-0.2218,-0.2268,-0.2327,-0.2347,-0.2388,-0.2365,-0.2382,-0.2401,-0.2388,-0.2399,-0.2381,-0.2403,-0.2403,-0.2212,-0.2228,-0.2409,-0.2386,-0.2387,-0.2388,-0.2388,0,-0.1844,-0.1889,-0.1959,-0.2046,-0.2073,-0.2125,-0.2226,-0.2275,-0.2356,-0.2397,-0.2451,-0.2467,-0.2495,-0.2472,-0.2489,-0.2486,-0.2464,-0.2449,-0.2448,-0.2282,-0.2226,-0.2337,-0.2399,-0.2398,-0.2397,-0.2396,-0.2396,0,-0.1798,-0.1897,-0.1957,-0.1987,-0.2092,-0.2149,-0.2213,-0.2302,-0.2347,-0.2441,-0.2479,-0.2534,-0.2548,-0.2563,-0.2513,-0.252,-0.2519,-0.252,-0.2331,-0.2317,-0.2492,-0.2486,-0.2544,-0.2544,-0.2544,-0.2544,-0.2544,0,-0.1772,-0.1822,-0.1949,-0.1975,-0.2057,-0.2139,-0.2226,-0.2295,-0.239,-0.2429,-0.2506,-0.2526,-0.2579,-0.2572,-0.2544,-0.2429,-0.2541,-0.2333,-0.2303,-0.2489,-0.2483,-0.2493,-0.2488,-0.2543,-0.2543,-0.2543,-0.2543,0,-0.1686,-0.1773,-0.1844,-0.1982,-0.2029,-0.2082,-0.2216,-0.2263,-0.237,-0.2423,-0.2452,-0.2529,-0.251,-0.2518,-0.2513,-0.2425,-0.2363,-0.2298,-0.2467,-0.2448,-0.2137,-0.2133,-0.2095,-0.2088,-0.2082,-0.2077,-0.2073,0,-0.1638,-0.1669,-0.1825,-0.1868,-0.1935,-0.2034,-0.2093,-0.223,-0.227,-0.2389,-0.239,-0.2426,-0.2446,-0.2276,-0.2319,-0.2241,-0.2213,-0.2167,-0.2178,-0.2119,-0.2095,-0.2099,-0.2102,-0.2064,-0.2063,-0.2061,-0.206,0,-0.1543,-0.1618,-0.1678,-0.1771,-0.185,-0.1924,-0.2019,-0.2034,-0.2168,-0.2288,-0.225,-0.222,-0.2186,-0.2152,-0.209,-0.2046,-0.2195,-0.2108,-0.212,-0.213,-0.2082,-0.2064,-0.2074,-0.204,-0.2043,-0.2045,-0.2046,0,-0.1471,-0.1493,-0.1584,-0.1646,-0.1739,-0.1773,-0.1849,-0.1886,-0.194,-0.2074,-0.2054,-0.2088,-0.2163,-0.2049,-0.2002,-0.1926,-0.1905,-0.1846,-0.1872,-0.1894,-0.1835,-0.1745,-0.1568,0,0,0,0,0,-0.1389,-0.1396,-0.1448,-0.1513,-0.1598,-0.1648,-0.1774,-0.1853,-0.1984,-0.1898,-0.1968,-0.1924,-0.1846,-0.1872,-0.1748,-0.1913,-0.1917,-0.1762,-0.1866,-0.1931,-0.1954,-0.19,0,0,0,0,0,0,-0.1334,-0.1378,-0.1396,-0.1379,-0.1391,-0.1471,-0.154,-0.164,-0.1605,-0.1737,-0.1699,-0.1793,-0.1742,-0.1869,-0.17,-0.1704,-0.1727,-0.1794,-0.1788,-0.1918,-0.1938,-0.1957,-0.1909,0,0,0,0,0]},{"header":{"parameterUnit":"m.s-1","parameterCategory":2,"la1":30.2991,"la2":30.254,"lo1":-89.0895,"lo2":-89.0444,"dy":0.0017,"dx":0.0017,"nx":28,"ny":28,"refTime":"2025-04-17T21:00:00:Z","depth":"4","parameterNumber":3,"parameterNumberName":"V-component_of_CURRENTS"},"data":[0,0,0,0,0,0,0,0,0,0,0,0,0,0,0,0,0,0,0,0,0,0,0,0,0,0,0,0,0,0,0,0,0,0,0,0,0,0,0,0,0,0,0,0,0,0,0,0,0,0,0,0,0,0,0,0,0,0,-0.0319,-0.0319,0,-0.029,-0.0289,-0.0289,-0.0242,-0.0242,-0.0241,-0.024,-0.0164,-0.0162,-0.0161,0,0,0,0,0,0,0,0,0,0,0,0,0,-0.0329,-0.0329,-0.0319,-0.0319,-0.0318,-0.029,-0.0289,-0.0289,-0.0243,-0.0242,-0.024,-0.0239,-0.0164,-0.0163,-0.0161,0,0,0,0,0,0,0,0,0,0,0,0,0,-0.0315,-0.0329,-0.0319,-0.0291,-0.0288,-0.029,-0.0289,-0.0289,-0.0243,-0.0241,-0.024,-0.0239,-0.0164,-0.0163,-0.0161,-0.0178,0,0,-0.0156,-0.0155,0,0,0,0,0,0,0,0,-0.0316,-0.0315,-0.0296,-0.0293,-0.029,-0.0268,-0.0265,-0.0249,-0.0243,-0.0261,-0.024,-0.0238,-0.0195,-0.019,-0.019,-0.0174,-0.0171,-0.0155,-0.0154,-0.0154,-0.0153,0,0,0,0,0,0,0,-0.0317,-0.0316,-0.0308,-0.0295,-0.0292,-0.0278,-0.0274,-0.0262,-0.0236,-0.0259,-0.0256,-0.0252,-0.0192,-0.0191,-0.0187,-0.017,-0.0155,-0.0154,-0.0153,-0.0152,-0.0147,-0.0148,0,0,0,0,0,0,-0.0321,-0.0317,-0.0309,-0.0307,-0.0299,-0.0279,-0.0275,-0.0277,-0.0237,-0.0229,-0.0253,-0.0249,-0.0195,-0.0189,-0.0184,-0.0193,-0.0154,-0.0152,-0.0151,-0.0146,-0.0148,-0.0149,0,0,0,0,0,0,-0.0322,-0.0321,-0.031,-0.031,-0.0308,-0.028,-0.0282,-0.0277,-0.0274,-0.0232,-0.0224,-0.0255,-0.0194,-0.0187,-0.0176,-0.0189,-0.0151,-0.015,-0.0145,-0.0147,-0.0148,-0.0215,0,0,0,0,0,0,-0.0322,-0.0322,-0.0332,-0.0311,-0.0308,-0.0316,-0.0283,-0.0277,-0.0273,-0.0269,-0.0231,-0.0223,-0.0192,-0.0179,-0.0175,-0.0186,-0.0148,-0.0144,-0.0146,-0.0148,-0.0211,-0.0218,-0.0224,0,0,0,0,0,-0.0323,-0.034,-0.0333,-0.0332,-0.0321,-0.0317,-0.0315,-0.029,-0.0275,-0.0281,-0.0255,-0.0224,-0.0187,-0.0179,-0.0173,-0.0184,-0.0143,-0.0146,-0.0148,-0.0208,-0.0217,-0.0224,0,0,0,0,0,0,-0.0349,-0.0336,-0.0327,-0.034,-0.0332,-0.0309,-0.0314,-0.0299,-0.0286,-0.028,-0.0238,-0.0229,-0.0228,-0.02,-0.0192,-0.0189,-0.0159,-0.016,-0.0208,-0.0215,-0.0222,-0.0194,-0.0147,0,0,0,0,0,-0.0361,-0.0371,-0.0354,-0.0366,-0.0363,-0.0342,-0.034,-0.0325,-0.0307,-0.0299,-0.0273,-0.0248,-0.0234,-0.0219,-0.0206,-0.0203,-0.0138,-0.0206,-0.0213,-0.0218,-0.0192,-0.01,-0.0094,-0.0155,-0.0155,-0.0155,0,0,-0.0376,-0.0369,-0.0375,-0.0372,-0.0363,-0.0368,-0.0337,-0.0339,-0.034,-0.0294,-0.0292,-0.0275,-0.0242,-0.0241,-0.0236,-0.0215,-0.0176,-0.0221,-0.0226,-0.0196,-0.0101,-0.0094,-0.0089,-0.0157,-0.0157,-0.0156,0,0,-0.0407,-0.0403,-0.042,-0.0417,-0.0409,-0.0395,-0.0398,-0.0382,-0.0371,-0.0375,-0.0341,-0.0321,-0.0311,-0.0275,-0.026,-0.0291,-0.022,-0.0302,-0.03,-0.0212,-0.0205,-0.0198,-0.0141,-0.0128,-0.0295,-0.0295,-0.0295,0,-0.0424,-0.044,-0.0425,-0.0439,-0.0437,-0.041,-0.0423,-0.0415,-0.0397,-0.038,-0.0382,-0.0337,-0.032,-0.0283,-0.0301,-0.0302,-0.0248,-0.0276,-0.0217,-0.0208,-0.0199,-0.0142,-0.0127,-0.0298,-0.0298,-0.0298,-0.0297,0,-0.0463,-0.0476,-0.0486,-0.049,-0.049,-0.0498,-0.0479,-0.0475,-0.0462,-0.0439,-0.0412,-0.0383,-0.034,-0.035,-0.0338,-0.028,-0.0262,-0.0243,-0.0192,-0.0197,-0.0138,-0.0121,-0.0303,-0.0302,-0.0301,-0.03,0,0,-0.0497,-0.051,-0.0515,-0.0523,-0.0516,-0.0519,-0.0517,-0.0496,-0.0479,-0.0461,-0.0426,-0.041,-0.0371,-0.0349,-0.0324,-0.0255,-0.018,-0.0228,-0.0222,-0.0163,0.0002,-0.0034,-0.0019,-0.0144,-0.0141,-0.0139,0.0008,0,-0.0529,-0.0565,-0.0558,-0.0586,-0.0599,-0.057,-0.0569,-0.0545,-0.0516,-0.0479,-0.042,-0.0392,-0.0377,-0.0361,-0.0287,-0.0213,-0.0133,-0.0222,-0.0008,-0.0001,-0.0025,0.0001,-0.0128,0.0021,0.0025,0.0028,0.003,0,-0.0567,-0.0584,-0.062,-0.0625,-0.0626,-0.0639,-0.061,-0.0605,-0.0538,-0.0511,-0.0442,-0.0394,-0.0308,-0.0295,-0.0118,-0.0176,-0.0082,-0.0015,-0.0007,0.0006,-0.0005,0.0036,0.0062,0.006,0.0057,0.0055,0.0053,0,-0.0596,-0.0624,-0.0653,-0.0659,-0.0662,-0.0667,-0.0663,-0.0615,-0.0602,-0.0521,-0.0492,-0.0373,-0.0322,-0.0177,-0.0059,-0.0074,0.0143,0.0142,0.0209,0.0206,0.0226,0.0217,0.0308,0.0308,0.0307,0.0307,0.0307,0,-0.0626,-0.0652,-0.0675,-0.0694,-0.0724,-0.0707,-0.0714,-0.0687,-0.0635,-0.0605,-0.051,-0.0451,-0.0285,-0.0155,-0.0033,0.013,0.0174,0.0231,0.0256,0.0185,0.0171,0.0236,0.0226,0.0312,0.0311,0.031,0.0309,0,-0.0654,-0.0669,-0.071,-0.0732,-0.0744,-0.0768,-0.0774,-0.0766,-0.0712,-0.0665,-0.064,-0.0496,-0.0328,-0.0163,0.0065,0.0147,0.0312,0.0368,0.0266,0.028,0.0311,0.0295,0.0466,0.0466,0.0466,0.0466,0.0467,0,-0.0669,-0.0695,-0.0752,-0.0786,-0.0805,-0.0835,-0.0851,-0.0815,-0.0796,-0.0688,-0.0659,-0.0496,-0.0386,-0.0085,0.0078,0.0322,0.035,0.043,0.039,0.0327,0.0335,0.0319,0.0303,0.0467,0.0467,0.0467,0.0467,0,-0.0697,-0.0725,-0.076,-0.0836,-0.0876,-0.0905,-0.0918,-0.0908,-0.0843,-0.0798,-0.0645,-0.0483,-0.0294,-0.0079,0.0105,0.0278,0.0369,0.0432,0.0433,0.0397,0.033,0.0334,0.0319,0.0468,0.0468,0.0468,0.0468,0,-0.0718,-0.0756,-0.0813,-0.0871,-0.0929,-0.0953,-0.0956,-0.0906,-0.0871,-0.074,-0.0689,-0.0474,-0.0344,-0.01,0.0072,0.0229,0.0266,0.0307,0.0315,0.0316,0.0212,0.0101,0.0214,0,0,0,0,0,-0.0731,-0.0776,-0.0841,-0.0902,-0.096,-0.0988,-0.0986,-0.0968,-0.0906,-0.08,-0.0737,-0.0551,-0.0275,-0.0149,0.0006,0.005,0.0266,0.0232,0.031,0.0472,0.0471,0.037,0,0,0,0,0,0,-0.0742,-0.0808,-0.084,-0.0911,-0.096,-0.1008,-0.101,-0.0968,-0.0889,-0.0805,-0.0649,-0.0541,-0.0272,-0.0369,-0.0001,0.0047,0.0112,0.0371,0.0373,0.0472,0.0472,0.0471,0.0367,0,0,0,0,0]}]]